K3HW Weather Reports


time (UTC)temp
F
wind
direction
speed
knots
gust
knots
rain 1hr
in
rain 24hr
in
rain mn
in
humidity
%
barometer
mb
20260506201150 65 137 0.0 0.0 0.00 0.20 0.20 79 1010.4
20260506200647 65 332 0.0 0.0 0.00 0.20 0.20 80 1010.6
20260506200144 64 132 0.0 0.0 0.00 0.20 0.20 80 1010.3
20260506195641 64 261 0.0 0.0 0.00 0.20 0.20 80 1010.9
20260506195137 64 128 0.0 0.0 0.00 0.20 0.20 81 1010.8
20260506194634 65 234 0.0 0.0 0.00 0.20 0.20 81 1010.7
20260506194130 64 197 0.0 0.0 0.00 0.20 0.20 81 1010.9
20260506193629 64 37 0.0 0.0 0.00 0.20 0.20 82 1011.0
20260506193125 64 7 0.0 0.0 0.00 0.20 0.20 82 1011.0
20260506192622 64 58 0.0 0.0 0.00 0.20 0.20 82 1010.9
20260506192118 64 35 0.0 0.0 0.00 0.20 0.20 82 1011.1
20260506191615 63 335 0.0 0.0 0.00 0.20 0.20 82 1011.0
20260506191111 63 1 0.0 0.0 0.00 0.20 0.20 83 1011.0
20260506190609 63 35 0.0 0.0 0.00 0.20 0.20 84 1010.9
20260506190105 63 37 0.0 0.0 0.00 0.20 0.20 84 1011.1
20260506185602 63 49 0.0 0.0 0.00 0.20 0.20 84 1011.1
20260506185059 62 214 0.0 0.0 0.00 0.20 0.20 85 1011.0
20260506184556 62 266 0.0 0.0 0.00 0.20 0.20 86 1011.2
20260506184054 62 272 0.0 0.0 0.00 0.20 0.20 86 1011.2
20260506183549 62 239 0.0 0.0 0.00 0.20 0.20 86 1011.5
20260506183046 62 294 0.0 0.0 0.00 0.20 0.20 85 1011.3
20260506182543 63 341 0.0 0.0 0.00 0.20 0.20 85 1011.5
20260506182041 62 330 0.0 0.0 0.00 0.20 0.20 84 1011.5
20260506181538 62 146 0.0 0.0 0.00 0.20 0.20 85 1011.5
20260506181035 62 350 0.0 0.0 0.00 0.20 0.20 84 1011.3
20260506180531 62 45 0.0 0.0 0.00 0.20 0.20 84 1011.6
20260506180028 62 96 0.0 0.0 0.00 0.20 0.20 84 1011.6
20260506175525 62 253 0.0 0.0 0.00 0.20 0.20 84 1011.6
20260506175021 62 324 0.0 0.0 0.00 0.20 0.20 84 1011.6
20260506174520 62 243 0.0 0.0 0.00 0.20 0.20 84 1011.7
20260506174015 62 42 0.0 0.0 0.00 0.20 0.20 85 1011.6
20260506173513 62 82 0.0 0.0 0.00 0.20 0.20 85 1011.6
20260506173010 62 144 0.0 0.0 0.00 0.20 0.20 86 1011.4
20260506172508 62 67 0.0 0.0 0.00 0.20 0.20 86 1011.6
20260506172003 62 172 0.0 0.0 0.00 0.20 0.20 86 1011.7
20260506171501 62 301 0.0 0.0 0.00 0.20 0.20 86 1012.0
20260506170959 62 33 0.0 0.0 0.00 0.20 0.20 86 1011.9
20260506170455 62 243 0.0 0.0 0.00 0.20 0.20 86 1011.8
20260506165954 62 41 0.0 0.0 0.00 0.20 0.20 87 1011.9
20260506165452 62 339 0.0 0.0 0.00 0.20 0.20 87 1011.8
20260506164947 62 318 0.0 0.0 0.00 0.20 0.20 87 1012.0
20260506164444 62 116 0.0 0.0 0.00 0.20 0.20 88 1011.8
20260506163942 62 199 0.0 0.0 0.00 0.20 0.20 88 1011.9
20260506163437 62 42 0.0 0.0 0.05 0.20 0.20 88 1011.6
20260506162932 62 53 0.0 0.0 0.05 0.20 0.20 88 1011.9
20260506162430 62 79 0.0 0.0 0.00 0.19 0.19 89 1011.6
20260506161927 61 49 0.0 0.0 0.00 0.19 0.19 89 1011.8
20260506161426 61 102 0.0 0.0 0.07 0.19 0.19 89 1012.1
20260506160922 61 42 0.0 0.0 0.07 0.19 0.19 89 1012.5
20260506160420 61 50 0.0 0.0 0.05 0.18 0.18 89 1012.6
20260506155917 61 139 0.0 0.0 0.05 0.18 0.18 89 1012.9
20260506155414 61 50 0.0 0.0 0.12 0.18 0.18 89 1013.0
20260506153531 61 56 0.0 0.0 0.19 0.11 0.11 87 1013.0
20260506153028 61 11 0.0 0.0 0.19 0.10 0.10 86 1013.0
20260506152525 62 345 0.0 0.0 0.12 0.08 0.08 85 1012.8
20260506152023 62 59 0.0 0.0 0.12 0.07 0.07 85 1012.7
20260506151521 62 35 0.0 0.0 0.12 0.06 0.06 85 1013.1
20260506151018 62 300 0.0 0.0 0.05 0.05 0.05 84 1013.1
20260506150514 62 23 0.0 0.0 0.05 0.05 0.05 84 1013.0
20260506150011 62 33 0.0 0.0 0.00 0.04 0.04 84 1012.9
20260506145507 63 33 0.0 0.0 0.07 0.04 0.04 85 1012.9
20260506145005 63 33 0.0 0.0 0.12 0.04 0.04 84 1012.9
20260506144502 62 42 0.0 0.0 0.05 0.03 0.03 83 1012.9
20260506143959 63 171 0.0 0.0 0.12 0.03 0.03 82 1012.9
20260506143456 63 38 0.0 0.0 0.12 0.02 0.02 82 1012.9
20260506142955 64 47 0.0 0.0 0.05 0.01 0.01 81 1012.9
20260506142452 64 47 0.0 0.0 0.00 0.00 0.00 77 1012.9
20260506141950 64 69 0.0 0.0 0.00 0.00 0.00 75 1012.9
20260506141448 65 269 0.0 0.0 0.00 0.00 0.00 74 1013.0
20260506140946 65 281 0.0 0.0 0.00 0.00 0.00 74 1012.8
20260506140443 66 197 0.0 0.0 0.00 0.00 0.00 71 1013.0
20260506135939 66 207 0.0 0.0 0.00 0.00 0.00 69 1012.5
20260506135437 67 22 0.0 0.0 0.00 0.00 0.00 70 1012.6
20260506134933 67 315 0.0 0.0 0.00 0.00 0.00 69 1012.6
20260506134429 68 351 0.0 0.0 0.00 0.00 0.00 68 1012.6
20260506133926 67 77 0.0 0.0 0.00 0.00 0.00 69 1012.6
20260506133423 67 32 0.0 0.0 0.00 0.00 0.00 69 1012.6
20260506132920 66 40 0.0 0.0 0.00 0.00 0.00 70 1012.9
20260506132417 66 23 0.0 0.0 0.00 0.00 0.00 70 1012.8
20260506131914 66 177 0.0 0.0 0.00 0.00 0.00 69 1012.8
20260506131411 66 167 0.0 0.0 0.00 0.00 0.00 70 1012.8
20260506130908 66 113 0.0 0.0 0.00 0.00 0.00 70 1012.8
20260506130404 66 70 0.0 0.0 0.00 0.00 0.00 69 1012.8
20260506125902 66 147 0.0 0.0 0.00 0.00 0.00 68 1013.1
20260506125401 66 345 0.0 0.0 0.00 0.00 0.00 69 1013.1
20260506124858 67 156 0.0 0.0 0.00 0.00 0.00 68 1013.0
20260506124355 67 193 0.0 0.0 0.00 0.00 0.00 68 1012.9
20260506123853 67 168 0.0 0.0 0.00 0.00 0.00 68 1013.1
20260506123351 66 23 0.0 0.0 0.00 0.00 0.00 68 1012.9
20260506122848 66 120 0.0 0.0 0.00 0.00 0.00 69 1012.9
20260506122345 66 55 0.0 0.0 0.00 0.00 0.00 69 1012.9
20260506121843 66 44 0.0 0.0 0.00 0.00 0.00 69 1012.9
20260506121340 66 271 0.0 0.0 0.00 0.00 0.00 69 1012.8
20260506120837 66 231 0.0 0.0 0.00 0.00 0.00 69 1012.8
20260506120334 66 347 0.0 0.0 0.00 0.00 0.00 70 1012.9
20260506115832 66 39 0.0 0.0 0.00 0.00 0.00 71 1012.7
20260506115330 66 49 0.0 0.0 0.00 0.00 0.00 70 1012.8
20260506114827 65 43 0.0 0.0 0.00 0.00 0.00 71 1012.7
20260506114325 65 41 0.0 0.0 0.00 0.00 0.00 71 1012.7
20260506113823 65 79 0.0 0.0 0.00 0.00 0.00 71 1012.6
20260506113321 65 58 0.0 0.0 0.00 0.00 0.00 71 1012.7
20260506112817 65 67 0.0 0.0 0.00 0.00 0.00 71 1012.5
20260506112314 65 98 0.0 0.0 0.00 0.00 0.00 71 1012.7
20260506111812 65 43 0.0 0.0 0.00 0.00 0.00 72 1012.9
20260506111309 65 36 0.0 0.0 0.00 0.00 0.00 71 1012.6
20260506110807 65 215 0.0 0.0 0.00 0.00 0.00 71 1012.7
20260506110304 65 45 0.0 0.0 0.00 0.00 0.00 72 1012.5
20260506105800 65 55 0.0 0.0 0.00 0.00 0.00 71 1012.5
20260506105257 65 79 0.0 0.0 0.00 0.00 0.00 72 1012.5
20260506104755 65 112 0.0 0.0 0.00 0.00 0.00 71 1012.4
20260506104252 65 110 0.0 0.0 0.00 0.00 0.00 72 1012.2
20260506103750 65 152 0.0 0.0 0.00 0.00 0.00 71 1012.5
20260506103247 65 89 0.0 0.0 0.00 0.00 0.00 71 1012.3
20260506102744 65 50 0.0 0.0 0.00 0.00 0.00 71 1012.6
20260506102242 65 85 0.0 0.0 0.00 0.00 0.00 71 1012.3
20260506101739 65 61 0.0 0.0 0.00 0.00 0.00 71 1012.1
20260506101235 65 144 0.0 0.0 0.00 0.00 0.00 71 1012.4
20260506100734 65 60 0.0 0.0 0.00 0.00 0.00 72 1012.1
20260506100231 65 51 0.0 0.0 0.00 0.00 0.00 71 1012.4
20260506095730 65 58 0.0 0.0 0.00 0.00 0.00 71 1012.5
20260506095226 65 88 0.0 0.0 0.00 0.00 0.00 71 1012.6
20260506094723 65 47 0.0 0.0 0.00 0.00 0.00 71 1012.5
20260506094221 65 34 0.0 0.0 0.00 0.00 0.00 71 1012.4
20260506093720 65 102 0.0 0.0 0.00 0.00 0.00 71 1012.4
20260506093216 66 42 0.0 0.0 0.00 0.00 0.00 70 1012.2
20260506092714 66 46 0.0 0.0 0.00 0.00 0.00 70 1012.5
20260506092211 66 57 0.0 0.0 0.00 0.00 0.00 70 1012.4
20260506091709 66 71 0.0 0.0 0.00 0.00 0.00 69 1012.4
20260506091206 66 96 0.0 0.0 0.00 0.00 0.00 69 1012.3
20260506090704 66 42 0.0 0.0 0.00 0.00 0.00 68 1012.3
20260506090200 67 52 0.0 0.0 0.00 0.00 0.00 68 1012.3
20260506085658 67 56 0.0 0.0 0.00 0.00 0.00 67 1012.3
20260506085153 67 50 0.0 0.0 0.00 0.00 0.00 67 1012.2
20260506084650 67 29 0.0 0.0 0.00 0.00 0.00 67 1012.4
20260506084147 67 51 0.0 0.0 0.00 0.00 0.00 67 1012.4
20260506083644 67 34 0.0 0.0 0.00 0.00 0.00 67 1012.3
20260506083142 67 79 0.0 0.0 0.00 0.00 0.00 67 1012.8
20260506082639 67 51 0.0 0.0 0.00 0.00 0.00 66 1012.4
20260506082134 67 269 0.0 0.0 0.00 0.00 0.00 67 1012.5
20260506081632 67 248 0.0 0.0 0.00 0.00 0.00 67 1012.3
20260506081130 67 43 0.0 0.0 0.00 0.00 0.00 67 1012.4
20260506080627 67 105 0.0 0.0 0.00 0.00 0.00 67 1012.6
20260506080123 67 50 0.0 0.0 0.00 0.00 0.00 67 1012.5
20260506073107 67 32 0.0 0.0 0.00 0.00 0.00 66 1012.8
20260506072604 67 46 0.0 0.0 0.00 0.00 0.00 66 1012.8
20260506072102 67 48 0.0 0.0 0.00 0.00 0.00 66 1012.8
20260506071559 67 153 0.0 0.0 0.00 0.00 0.00 66 1012.7
20260506071057 67 82 0.0 0.0 0.00 0.00 0.00 66 1012.8
20260506070554 67 44 0.0 0.0 0.00 0.00 0.00 65 1012.9
20260506062028 68 62 0.0 0.0 0.00 0.00 0.00 63 1013.4
20260506061529 68 95 0.0 0.0 0.00 0.00 0.00 63 1013.4
20260506061027 68 65 0.0 0.0 0.00 0.00 0.00 63 1013.3
20260506060525 68 90 0.0 0.0 0.00 0.00 0.00 63 1013.4
20260506050954 68 33 0.0 0.0 0.00 0.00 0.00 62 1013.9
20260506050452 68 11 0.0 0.0 0.00 0.00 0.00 61 1013.6
20260506044942 68 72 0.0 0.0 0.00 0.00 0.00 61 1013.7
20260506044440 68 52 0.0 0.0 0.00 0.00 0.00 61 1013.9
20260506043936 68 44 0.0 0.0 0.00 0.00 0.00 61 1013.9
20260506043434 68 96 0.0 0.0 0.00 0.00 0.00 61 1014.0
20260506042932 68 67 0.0 0.0 0.00 0.00 0.00 61 1013.9
20260506042431 68 42 0.0 0.0 0.00 0.00 0.00 61 1014.0
20260506041929 68 39 0.0 0.0 0.00 0.00 0.00 61 1013.9
20260506041426 68 131 0.0 0.0 0.00 0.00 0.00 61 1013.7
20260506040923 68 34 0.0 0.0 0.00 0.00 0.00 61 1013.7
20260506040421 68 236 0.0 0.0 0.00 0.00 0.00 60 1013.6
20260506035916 68 39 0.0 0.0 0.00 0.00 0.00 60 1013.6
20260506035414 68 39 0.0 0.0 0.00 0.00 0.00 60 1013.9
20260506034911 69 12 0.0 0.0 0.00 0.00 0.00 60 1013.4
20260506034408 69 178 0.0 0.0 0.00 0.00 0.00 60 1013.7
20260506033905 69 65 0.0 0.0 0.00 0.00 0.00 60 1013.5
20260506033402 69 43 0.0 0.0 0.00 0.00 0.00 60 1013.5
20260506032859 69 88 0.0 0.0 0.00 0.00 0.00 60 1013.5
20260506032356 69 64 0.0 0.0 0.00 0.00 0.00 59 1013.4
20260506031852 69 49 0.0 0.0 0.00 0.00 0.00 59 1013.5
20260506031350 69 41 0.0 0.0 0.00 0.00 0.00 59 1013.6
20260506030848 70 50 0.0 0.0 0.00 0.00 0.00 58 1013.6
20260506030346 70 44 0.0 0.0 0.00 0.00 0.00 56 1013.5
20260506025842 71 44 0.0 0.0 0.00 0.00 0.00 55 1013.4
20260506025338 71 107 0.0 0.0 0.00 0.00 0.00 55 1013.5
20260506024835 71 55 0.0 0.0 0.00 0.00 0.00 54 1013.5
20260506024332 71 111 0.0 0.0 0.00 0.00 0.00 54 1013.7
20260506023828 71 50 0.0 0.0 0.00 0.00 0.00 53 1013.6
20260506023325 71 75 0.0 0.0 0.00 0.00 0.00 53 1013.4
20260506022822 71 84 0.0 0.0 0.00 0.00 0.00 53 1013.5
20260506022320 72 170 0.0 0.0 0.00 0.00 0.00 52 1013.6
20260506021818 72 60 0.0 0.0 0.00 0.00 0.00 52 1013.5
20260506021314 72 157 0.0 0.0 0.00 0.00 0.00 52 1013.4
20260506020811 72 43 0.0 0.0 0.00 0.00 0.00 52 1013.5
20260506020309 72 88 0.0 0.0 0.00 0.00 0.00 51 1013.5
20260506015807 72 68 0.0 0.0 0.00 0.00 0.00 51 1013.4
20260506015306 73 56 0.0 0.0 0.00 0.00 0.00 50 1013.4
20260506014800 73 89 0.0 0.0 0.00 0.00 0.00 50 1013.4
20260506014257 73 95 0.0 0.0 0.00 0.00 0.00 49 1013.3
20260506013754 73 70 0.0 0.0 0.00 0.00 0.00 48 1013.3
20260506013251 73 208 0.0 0.0 0.00 0.00 0.00 48 1013.3
20260506012748 74 24 0.0 0.0 0.00 0.00 0.00 48 1013.3
20260506012244 74 15 0.0 0.0 0.00 0.00 0.00 47 1013.3
20260506011742 74 75 0.0 0.0 0.00 0.00 0.00 47 1013.1
20260506011238 74 74 0.0 0.0 0.00 0.00 0.00 46 1013.2
20260506010737 74 49 0.0 0.0 0.00 0.00 0.00 46 1013.1
20260506010233 74 256 0.0 0.0 0.00 0.00 0.00 46 1013.1
20260506005731 74 79 0.0 0.0 0.00 0.00 0.00 47 1013.0
20260506005227 74 60 0.0 0.0 0.00 0.00 0.00 47 1012.8
20260506004723 75 35 0.0 0.0 0.00 0.00 0.00 46 1012.8
20260506004221 75 306 0.0 0.0 0.00 0.00 0.00 46 1012.9
20260506003717 75 116 0.0 0.0 0.00 0.00 0.00 45 1013.0
20260506003213 75 85 0.0 0.0 0.00 0.00 0.00 47 1012.5
20260506002709 75 118 0.0 0.0 0.00 0.00 0.00 45 1012.9
20260506002206 76 109 0.0 0.0 0.00 0.00 0.00 45 1012.6
20260506001702 75 45 0.0 0.0 0.00 0.00 0.00 44 1012.6
20260506001159 76 44 0.0 0.0 0.00 0.00 0.00 43 1012.4
20260506000656 77 64 0.0 0.0 0.00 0.00 0.00 41 1012.7
20260506000153 77 25 0.0 0.0 0.00 0.00 0.00 40 1012.4
20260505235652 77 82 0.0 0.0 0.00 0.00 0.00 42 1012.4
20260505235149 77 21 0.0 0.0 0.00 0.00 0.00 41 1012.5
20260505234645 77 147 0.0 0.0 0.00 0.00 0.00 41 1012.3
20260505234142 77 269 0.0 0.0 0.00 0.00 0.00 40 1012.2
20260505233639 78 56 0.0 0.0 0.00 0.00 0.00 41 1012.4
20260505233137 78 257 0.0 0.0 0.00 0.00 0.00 41 1012.4
20260505232634 77 140 0.0 0.0 0.00 0.00 0.00 40 1012.2
20260505232132 78 57 0.0 0.0 0.00 0.00 0.00 40 1012.3
20260505231628 78 6 0.0 0.0 0.00 0.00 0.00 40 1012.4
20260505231127 78 46 0.0 0.0 0.00 0.00 0.00 39 1012.3
20260505230625 78 182 0.0 0.0 0.00 0.00 0.00 39 1012.3
20260505230120 78 200 0.0 0.0 0.00 0.00 0.00 39 1012.2
20260505225617 78 48 0.0 0.0 0.00 0.00 0.00 39 1012.3
20260505225113 79 40 0.0 0.0 0.00 0.00 0.00 39 1012.3
20260505224610 79 211 0.0 0.0 0.00 0.00 0.00 38 1012.2
20260505224108 79 101 0.0 0.0 0.00 0.00 0.00 37 1012.4
20260505223605 80 22 0.0 0.0 0.00 0.00 0.00 38 1012.4
20260505223101 80 245 0.0 0.0 0.00 0.00 0.00 37 1012.1
20260505222557 80 12 0.0 0.0 0.00 0.00 0.00 37 1012.2
20260505222053 80 121 0.0 0.0 0.00 0.00 0.00 36 1012.0
20260505221551 81 179 0.0 0.0 0.00 0.00 0.00 36 1012.2
20260505221047 81 227 0.0 0.0 0.00 0.00 0.00 36 1012.2
20260505220544 81 7 0.0 0.0 0.00 0.00 0.00 36 1012.2
20260505220042 81 60 0.0 0.0 0.00 0.00 0.00 37 1012.0
20260505215540 81 255 0.0 0.0 0.00 0.00 0.00 35 1012.1
20260505215038 82 267 0.0 0.0 0.00 0.00 0.00 35 1011.9
20260505214536 82 257 0.0 0.0 0.00 0.00 0.00 36 1012.1
20260505214032 82 155 0.0 0.0 0.00 0.00 0.00 34 1012.2
20260505213530 82 19 0.0 0.0 0.00 0.00 0.00 35 1012.1
20260505213026 82 122 0.0 0.0 0.00 0.00 0.00 34 1012.1
20260505212522 81 167 0.0 0.0 0.00 0.00 0.00 36 1011.9
20260505212020 81 145 2.6 3.5 0.00 0.00 0.00 34 1012.1
20260505211517 82 117 3.5 6.1 0.00 0.00 0.00 34 1012.2
20260505211014 82 355 1.7 2.6 0.00 0.00 0.00 34 1011.8
20260505210510 81 56 1.7 2.6 0.00 0.00 0.00 33 1011.9
20260505210008 81 254 5.2 6.1 0.00 0.00 0.00 32 1012.2
20260505205506 81 296 2.6 5.2 0.00 0.00 0.00 33 1012.1
20260505205002 81 32 6.1 9.6 0.00 0.00 0.00 33 1012.1
20260505204500 81 77 4.3 6.1 0.00 0.00 0.00 33 1012.1
20260505203957 81 221 2.6 3.5 0.00 0.00 0.00 34 1012.0
20260505203453 82 194 1.7 1.7 0.00 0.00 0.00 35 1012.2
20260505202950 82 87 3.5 3.5 0.00 0.00 0.00 35 1012.0
20260505202447 81 110 0.9 0.9 0.00 0.00 0.00 35 1012.0
20260505201942 81 201 3.5 5.2 0.00 0.00 0.00 33 1012.1
20260505201440 81 56 2.6 2.6 0.00 0.00 0.00 34 1012.2